"read_dt","SO2 (ppb)","flags","PMT voltage (V)","lamp voltage (V)","lamp intensity (Hz)","internal temp (C)","react chamber temp (C)","sample flow (l/min)","pres (mmHg)","SO2 bkg (ppb)","SO2 coefficient"
2015-11-11 00:00:00,2242E-3,5C000400,-0724,0829,12141,022.3,045.3,0.266,755.7,01.16,0.508
2015-11-11 00:01:00,2252E-3,5C000400,-0724,0830,12048,022.3,045.3,0.266,755.8,01.16,0.508
2015-11-11 00:02:00,2109E-3,5C000400,-0724,0830,12196,022.3,045.3,0.265,755.7,01.16,0.508
2015-11-11 00:03:00,2161E-3,5C000400,-0724,0830,12158,022.3,045.3,0.266,755.8,01.16,0.508
2015-11-11 00:04:00,2243E-3,5C000400,-0724,0830,12261,022.3,045.3,0.266,755.7,01.16,0.508
2015-11-11 00:05:00,2323E-3,5C000400,-0724,0829,12248,022.4,045.3,0.266,755.8,01.16,0.508
2015-11-11 00:06:00,2160E-3,5C000400,-0724,0831,12170,022.3,045.3,0.265,755.8,01.16,0.508
2015-11-11 00:07:00,2152E-3,5C000400,-0724,0830,12280,022.3,045.3,0.265,755.8,01.16,0.508
2015-11-11 00:08:00,2270E-3,5C000400,-0724,0830,12231,022.3,045.3,0.265,755.7,01.16,0.508
2015-11-11 00:09:00,2146E-3,5C000400,-0724,0830,12112,022.3,045.3,0.266,755.8,01.16,0.508
2015-11-11 00:10:00,2333E-3,5C000400,-0724,0830,12162,022.3,045.3,0.266,755.8,01.16,0.508
2015-11-11 00:11:00,2198E-3,5C000400,-0724,0829,12002,022.3,045.3,0.266,755.8,01.16,0.508
2015-11-11 00:12:00,2151E-3,5C000400,-0724,0830,12053,022.3,045.3,0.266,755.9,01.16,0.508
2015-11-11 00:13:00,2184E-3,5C000400,-0724,0830,12284,022.4,045.3,0.265,755.8,01.16,0.508
2015-11-11 00:14:00,2258E-3,5C000400,-0724,0830,12177,022.4,045.3,0.266,755.8,01.16,0.508
2015-11-11 00:15:00,2149E-3,5C000400,-0724,0830,12273,022.4,045.3,0.266,755.9,01.16,0.508
2015-11-11 00:16:00,2177E-3,5C000400,-0724,0830,12211,022.4,045.3,0.266,756.0,01.16,0.508
2015-11-11 00:17:00,2079E-3,5C000400,-0724,0830,12285,022.4,045.3,0.265,756.1,01.16,0.508
2015-11-11 00:18:00,2104E-3,5C000400,-0724,0830,12213,022.4,045.3,0.265,756.0,01.16,0.508
2015-11-11 00:19:00,2232E-3,5C000400,-0724,0831,12154,022.4,045.3,0.266,756.1,01.16,0.508
2015-11-11 00:20:00,2271E-3,5C000400,-0724,0830,12351,022.4,045.3,0.266,756.1,01.16,0.508
2015-11-11 00:21:00,2125E-3,5C000400,-0724,0830,12167,022.4,045.3,0.266,755.9,01.16,0.508
2015-11-11 00:22:00,2034E-3,5C000400,-0724,0829,12117,022.4,045.3,0.265,756.0,01.16,0.508
2015-11-11 00:23:00,2220E-3,5C000400,-0724,0830,12125,022.4,045.3,0.266,756.0,01.16,0.508
2015-11-11 00:24:00,2180E-3,5C000400,-0724,0830,12145,022.3,045.3,0.266,755.8,01.16,0.508
2015-11-11 00:25:00,2321E-3,5C000400,-0724,0830,12351,022.4,045.3,0.266,755.9,01.16,0.508
2015-11-11 00:26:00,2106E-3,5C000400,-0724,0829,12076,022.4,045.3,0.265,755.9,01.16,0.508
2015-11-11 00:27:00,2246E-3,5C000400,-0724,0830,12247,022.4,045.3,0.265,755.9,01.16,0.508
2015-11-11 00:28:00,2201E-3,5C000400,-0724,0830,12078,022.4,045.3,0.266,755.9,01.16,0.508
2015-11-11 00:29:00,2116E-3,5C000400,-0724,0830,12232,022.4,045.3,0.266,756.0,01.16,0.508
2015-11-11 00:30:00,2028E-3,5C000400,-0724,0830,12229,022.4,045.3,0.266,756.0,01.16,0.508
2015-11-11 00:31:00,2219E-3,5C000400,-0724,0830,12255,022.4,045.3,0.265,755.8,01.16,0.508
2015-11-11 00:32:00,2177E-3,5C000400,-0724,0830,12318,022.4,045.3,0.266,756.2,01.16,0.508
2015-11-11 00:33:00,2319E-3,5C000400,-0724,0830,12165,022.4,045.3,0.266,756.1,01.16,0.508
2015-11-11 00:34:00,2126E-3,5C000400,-0724,0830,12210,022.4,045.3,0.266,756.2,01.16,0.508
2015-11-11 00:35:00,2209E-3,5C000400,-0724,0831,12381,022.4,045.3,0.265,756.1,01.16,0.508
2015-11-11 00:36:00,2159E-3,5C000400,-0724,0830,12162,022.4,045.3,0.266,756.1,01.16,0.508
2015-11-11 00:37:00,2086E-3,5C000400,-0724,0829,12144,022.4,045.3,0.266,756.1,01.16,0.508
2015-11-11 00:38:00,2169E-3,5C000400,-0724,0830,12218,022.4,045.3,0.266,756.1,01.16,0.508
2015-11-11 00:39:00,2268E-3,5C000400,-0724,0830,12221,022.4,045.3,0.265,756.0,01.16,0.508
2015-11-11 00:40:00,2221E-3,5C000400,-0724,0830,12206,022.4,045.3,0.265,756.0,01.16,0.508
2015-11-11 00:41:00,2190E-3,5C000400,-0724,0830,12208,022.4,045.3,0.266,756.0,01.16,0.508
2015-11-11 00:42:00,2105E-3,5C000400,-0724,0830,12263,022.4,045.3,0.266,756.0,01.16,0.508
2015-11-11 00:43:00,2094E-3,5C000400,-0724,0830,12272,022.4,045.3,0.265,755.9,01.16,0.508
2015-11-11 00:44:00,2130E-3,5C000400,-0724,0830,12248,022.4,045.3,0.265,755.9,01.16,0.508
2015-11-11 00:45:00,2205E-3,5C000400,-0724,0830,12022,022.4,045.3,0.266,756.0,01.16,0.508
2015-11-11 00:46:00,2192E-3,5C000400,-0724,0830,12146,022.4,045.3,0.266,756.0,01.16,0.508
2015-11-11 00:47:00,2250E-3,5C000400,-0724,0830,12165,022.4,045.3,0.266,755.9,01.16,0.508
2015-11-11 00:48:00,2100E-3,5C000400,-0724,0830,12250,022.4,045.3,0.265,755.9,01.16,0.508
2015-11-11 00:49:00,2241E-3,5C000400,-0724,0830,12186,022.4,045.3,0.266,755.8,01.16,0.508
2015-11-11 00:50:00,2223E-3,5C000400,-0724,0829,12250,022.4,045.3,0.266,755.8,01.16,0.508
2015-11-11 00:51:00,2226E-3,5C000400,-0724,0830,12182,022.4,045.3,0.266,755.9,01.16,0.508
2015-11-11 00:52:00,2194E-3,5C000400,-0724,0829,12203,022.4,045.3,0.265,755.9,01.16,0.508
2015-11-11 00:53:00,2270E-3,5C000400,-0724,0830,12106,022.4,045.3,0.265,755.8,01.16,0.508
2015-11-11 00:54:00,2291E-3,5C000400,-0724,0830,12250,022.4,045.3,0.266,755.9,01.16,0.508
2015-11-11 00:55:00,2196E-3,5C000400,-0724,0831,12243,022.4,045.3,0.266,755.9,01.16,0.508
2015-11-11 00:56:00,2327E-3,5C000400,-0724,0830,12175,022.4,045.3,0.266,755.8,01.16,0.508
2015-11-11 00:57:00,2106E-3,5C000400,-0724,0830,12136,022.4,045.3,0.265,755.8,01.16,0.508
2015-11-11 00:58:00,2236E-3,5C000400,-0724,0830,12240,022.4,045.3,0.265,755.9,01.16,0.508
2015-11-11 00:59:00,2016E-3,5C000400,-0724,0831,12266,022.4,045.3,0.265,755.8,01.16,0.508
2015-11-11 01:00:00,2026E-3,5C000400,-0724,0830,12177,022.4,045.3,0.266,755.6,01.16,0.508
2015-11-11 01:01:00,2252E-3,5C000400,-0724,0830,12168,022.4,045.3,0.266,755.9,01.16,0.508
2015-11-11 01:02:00,2047E-3,5C000400,-0724,0830,12059,022.4,045.3,0.266,755.9,01.16,0.508
2015-11-11 01:03:00,2182E-3,5C000400,-0724,0830,12170,022.4,045.3,0.265,755.7,01.16,0.508
2015-11-11 01:04:00,2201E-3,5C000400,-0724,0830,12164,022.4,045.3,0.265,755.9,01.16,0.508
2015-11-11 01:05:00,2140E-3,5C000400,-0724,0830,12159,022.4,045.3,0.265,755.8,01.16,0.508
2015-11-11 01:06:00,2279E-3,5C000400,-0724,0830,12292,022.4,045.3,0.265,755.8,01.16,0.508
2015-11-11 01:07:00,2201E-3,5C000400,-0724,0830,12243,022.4,045.3,0.266,755.7,01.16,0.508
2015-11-11 01:08:00,2126E-3,5C000400,-0724,0830,12124,022.4,045.3,0.266,755.9,01.16,0.508
2015-11-11 01:09:00,2106E-3,5C000400,-0724,0830,12208,022.4,045.3,0.265,755.9,01.16,0.508
2015-11-11 01:10:00,2202E-3,5C000400,-0724,0830,12240,022.4,045.3,0.265,755.9,01.16,0.508
2015-11-11 01:11:00,2205E-3,5C000400,-0724,0830,12201,022.4,045.3,0.265,755.9,01.16,0.508
2015-11-11 01:12:00,2259E-3,5C000400,-0724,0830,12196,022.4,045.3,0.265,755.7,01.16,0.508
2015-11-11 01:13:00,2206E-3,5C000400,-0724,0829,12258,022.4,045.3,0.265,755.7,01.16,0.508
2015-11-11 01:14:00,2251E-3,5C000400,-0724,0829,12107,022.4,045.3,0.265,755.8,01.16,0.508
2015-11-11 01:15:00,2173E-3,5C000400,-0724,0830,12339,022.4,045.3,0.266,755.9,01.16,0.508
2015-11-11 01:16:00,2356E-3,5C000400,-0724,0830,12136,022.4,045.3,0.266,755.7,01.16,0.508
2015-11-11 01:17:00,2225E-3,5C000400,-0724,0829,12082,022.4,045.3,0.266,755.9,01.16,0.508
2015-11-11 01:18:00,2137E-3,5C000400,-0724,0829,12112,022.4,045.3,0.265,755.8,01.16,0.508
2015-11-11 01:19:00,2205E-3,5C000400,-0724,0830,12089,022.4,045.3,0.265,756.0,01.16,0.508
2015-11-11 01:20:00,2133E-3,5C000400,-0724,0830,12225,022.4,045.3,0.265,756.0,01.16,0.508
2015-11-11 01:21:00,2145E-3,5C000400,-0724,0829,12219,022.4,045.3,0.265,756.0,01.16,0.508
2015-11-11 01:22:00,2134E-3,5C000400,-0724,0830,12092,022.4,045.3,0.265,755.9,01.16,0.508
2015-11-11 01:23:00,2171E-3,5C000400,-0724,0830,12320,022.4,045.3,0.265,755.9,01.16,0.508
2015-11-11 01:24:00,2205E-3,5C000400,-0724,0829,12201,022.4,045.3,0.266,755.9,01.16,0.508
2015-11-11 01:25:00,2081E-3,5C000400,-0724,0830,12190,022.4,045.3,0.266,755.9,01.16,0.508
2015-11-11 01:26:00,2238E-3,5C000400,-0724,0829,12234,022.4,045.3,0.265,755.9,01.16,0.508
2015-11-11 01:27:00,2145E-3,5C000400,-0724,0830,12030,022.4,045.3,0.265,755.8,01.16,0.508
2015-11-11 01:28:00,2189E-3,5C000400,-0724,0831,12191,022.4,045.3,0.265,756.0,01.16,0.508
2015-11-11 01:29:00,2124E-3,5C000400,-0724,0830,12303,022.4,045.3,0.265,755.9,01.16,0.508
2015-11-11 01:30:00,2222E-3,5C000400,-0724,0830,12012,022.4,045.3,0.265,755.8,01.16,0.508
2015-11-11 01:31:00,2226E-3,5C000400,-0724,0830,12127,022.4,045.3,0.266,755.8,01.16,0.508
2015-11-11 01:32:00,2108E-3,5C000400,-0724,0830,12227,022.4,045.3,0.266,756.0,01.16,0.508
2015-11-11 01:33:00,2116E-3,5C000400,-0724,0830,12287,022.4,045.3,0.265,755.9,01.16,0.508
2015-11-11 01:34:00,2219E-3,5C000400,-0724,0830,12191,022.4,045.3,0.265,755.9,01.16,0.508
2015-11-11 01:35:00,2068E-3,5C000400,-0724,0830,12190,022.4,045.3,0.265,755.7,01.16,0.508
2015-11-11 01:36:00,2114E-3,5C000400,-0724,0830,12328,022.4,045.3,0.266,755.8,01.16,0.508
2015-11-11 01:37:00,2231E-3,5C000400,-0724,0830,12026,022.4,045.3,0.266,755.8,01.16,0.508
2015-11-11 01:38:00,2323E-3,5C000400,-0724,0830,12348,022.4,045.3,0.265,755.7,01.16,0.508
2015-11-11 01:39:00,2219E-3,5C000400,-0724,0831,12272,022.4,045.3,0.265,755.8,01.16,0.508
2015-11-11 01:40:00,2184E-3,5C000400,-0724,0830,12299,022.4,045.3,0.265,755.7,01.16,0.508
2015-11-11 01:41:00,2142E-3,5C000400,-0724,0830,12082,022.4,045.3,0.265,755.8,01.16,0.508
2015-11-11 01:42:00,1963E-3,5C000400,-0724,0829,12238,022.4,045.3,0.265,756.0,01.16,0.508
2015-11-11 01:43:00,2103E-3,5C000400,-0724,0830,12213,022.4,045.3,0.266,755.9,01.16,0.508
2015-11-11 01:44:00,2233E-3,5C000400,-0724,0829,12186,022.4,045.3,0.266,755.9,01.16,0.508
2015-11-11 01:45:00,2074E-3,5C000400,-0724,0830,12280,022.4,045.3,0.265,755.7,01.16,0.508
2015-11-11 01:46:00,2162E-3,5C000400,-0724,0830,12222,022.4,045.3,0.265,755.9,01.16,0.508
2015-11-11 01:47:00,2279E-3,5C000400,-0724,0830,12223,022.4,045.3,0.265,756.0,01.16,0.508
2015-11-11 01:48:00,2199E-3,5C000400,-0724,0829,12230,022.4,045.3,0.265,755.7,01.16,0.508
2015-11-11 01:49:00,2003E-3,5C000400,-0724,0831,12128,022.4,045.3,0.265,755.8,01.16,0.508
2015-11-11 01:50:00,2228E-3,5C000400,-0724,0829,12199,022.4,045.3,0.266,755.8,01.16,0.508
2015-11-11 01:51:00,2268E-3,5C000400,-0724,0830,12276,022.4,045.3,0.265,755.9,01.16,0.508
2015-11-11 01:52:00,2204E-3,5C000400,-0724,0830,12241,022.4,045.3,0.265,755.7,01.16,0.508
2015-11-11 01:53:00,2181E-3,5C000400,-0724,0829,12159,022.4,045.3,0.265,755.8,01.16,0.508
2015-11-11 01:54:00,2057E-3,5C000400,-0724,0830,12126,022.4,045.3,0.265,755.8,01.16,0.508
2015-11-11 01:55:00,2127E-3,5C000400,-0724,0830,12203,022.4,045.3,0.265,755.8,01.16,0.508
2015-11-11 01:56:00,2176E-3,5C000400,-0724,0830,12247,022.4,045.3,0.266,755.8,01.16,0.508
2015-11-11 01:57:00,2125E-3,5C000400,-0724,0829,12137,022.4,045.3,0.266,755.8,01.16,0.508
2015-11-11 01:58:00,2040E-3,5C000400,-0724,0830,12324,022.4,045.3,0.265,755.8,01.16,0.508
2015-11-11 01:59:00,2161E-3,5C000400,-0724,0830,12256,022.4,045.3,0.266,755.8,01.16,0.508
2015-11-11 02:00:00,2003E-3,5C000400,-0724,0829,12228,022.4,045.3,0.266,755.7,01.16,0.508
2015-11-11 02:01:00,2114E-3,5C000400,-0724,0830,12145,022.4,045.3,0.266,755.7,01.16,0.508
2015-11-11 02:02:00,2104E-3,5C000400,-0724,0831,12292,022.4,045.3,0.265,755.8,01.16,0.508
2015-11-11 02:03:00,2132E-3,5C000400,-0724,0830,12183,022.4,045.3,0.265,755.8,01.16,0.508
2015-11-11 02:04:00,2211E-3,5C000400,-0724,0830,12063,022.4,045.3,0.265,755.9,01.16,0.508
2015-11-11 02:05:00,2181E-3,5C000400,-0724,0830,12171,022.4,045.3,0.265,755.9,01.16,0.508
2015-11-11 02:06:00,2123E-3,5C000400,-0724,0830,12232,022.4,045.3,0.265,755.8,01.16,0.508
2015-11-11 02:07:00,2180E-3,5C000400,-0724,0830,12218,022.4,045.3,0.266,756.0,01.16,0.508
2015-11-11 02:08:00,1983E-3,5C000400,-0724,0830,12157,022.4,045.3,0.266,755.9,01.16,0.508
2015-11-11 02:09:00,2152E-3,5C000400,-0724,0830,12294,022.4,045.3,0.265,755.8,01.16,0.508
2015-11-11 02:10:00,2114E-3,5C000400,-0724,0829,12302,022.4,045.3,0.265,755.9,01.16,0.508
2015-11-11 02:11:00,2186E-3,5C000400,-0724,0830,12312,022.4,045.3,0.265,755.8,01.16,0.508
2015-11-11 02:12:00,2209E-3,5C000400,-0724,0830,12098,022.4,045.3,0.266,755.9,01.16,0.508
2015-11-11 02:13:00,2082E-3,5C000400,-0724,0830,12263,022.4,045.3,0.266,755.9,01.16,0.508
2015-11-11 02:14:00,2218E-3,5C000400,-0724,0830,12189,022.4,045.3,0.265,755.9,01.16,0.508
2015-11-11 02:15:00,2219E-3,5C000400,-0724,0829,12237,022.4,045.3,0.266,755.8,01.16,0.508
2015-11-11 02:16:00,2138E-3,5C000400,-0724,0830,12247,022.4,045.3,0.265,755.9,01.16,0.508
2015-11-11 02:17:00,2283E-3,5C000400,-0724,0830,12179,022.4,045.3,0.265,756.0,01.16,0.508
2015-11-11 02:18:00,2235E-3,5C000400,-0724,0829,12255,022.4,045.3,0.265,755.9,01.16,0.508
2015-11-11 02:19:00,2177E-3,5C000400,-0724,0830,12071,022.4,045.3,0.265,755.9,01.16,0.508
2015-11-11 02:20:00,2156E-3,5C000400,-0724,0830,12240,022.4,045.3,0.266,755.9,01.16,0.508
2015-11-11 02:21:00,2123E-3,5C000400,-0724,0830,12247,022.4,045.3,0.266,755.9,01.16,0.508
2015-11-11 02:22:00,2095E-3,5C000400,-0724,0830,12259,022.4,045.3,0.265,755.9,01.16,0.508
2015-11-11 02:23:00,2270E-3,5C000400,-0724,0830,12144,022.4,045.3,0.265,755.7,01.16,0.508
2015-11-11 02:24:00,2204E-3,5C000400,-0724,0830,12155,022.4,045.3,0.265,755.9,01.16,0.508
2015-11-11 02:25:00,2189E-3,5C000400,-0724,0829,12193,022.4,045.3,0.265,755.9,01.16,0.508
2015-11-11 02:26:00,2094E-3,5C000400,-0724,0829,12136,022.4,045.3,0.266,755.9,01.16,0.508
2015-11-11 02:27:00,2157E-3,5C000400,-0724,0829,12230,022.4,045.3,0.266,755.7,01.16,0.508
2015-11-11 02:28:00,2107E-3,5C000400,-0724,0830,12188,022.4,045.3,0.265,755.9,01.16,0.508
2015-11-11 02:29:00,2308E-3,5C000400,-0724,0830,12246,022.4,045.3,0.265,755.8,01.16,0.508
2015-11-11 02:30:00,2264E-3,5C000400,-0724,0830,12226,022.4,045.3,0.265,755.8,01.16,0.508
2015-11-11 02:31:00,2119E-3,5C000400,-0724,0829,12230,022.4,045.3,0.265,755.7,01.16,0.508
2015-11-11 02:32:00,2219E-3,5C000400,-0724,0830,12275,022.4,045.3,0.266,755.7,01.16,0.508
2015-11-11 02:33:00,2223E-3,5C000400,-0724,0831,12232,022.4,045.3,0.265,755.8,01.16,0.508
2015-11-11 02:34:00,2202E-3,5C000400,-0724,0830,12239,022.4,045.3,0.265,755.8,01.16,0.508
2015-11-11 02:35:00,2287E-3,5C000400,-0724,0830,12275,022.4,045.3,0.265,755.9,01.16,0.508
2015-11-11 02:36:00,2110E-3,5C000400,-0724,0830,12310,022.4,045.3,0.266,755.8,01.16,0.508
2015-11-11 02:37:00,2108E-3,5C000400,-0724,0830,12166,022.4,045.3,0.266,755.8,01.16,0.508
2015-11-11 02:38:00,2233E-3,5C000400,-0724,0829,12157,022.4,045.3,0.265,755.9,01.16,0.508
2015-11-11 02:39:00,2117E-3,5C000400,-0724,0829,12196,022.4,045.3,0.265,756.0,01.16,0.508
2015-11-11 02:40:00,2061E-3,5C000400,-0724,0830,12178,022.4,045.3,0.265,755.8,01.16,0.508
2015-11-11 02:41:00,2184E-3,5C000400,-0724,0830,12230,022.4,045.3,0.266,755.9,01.16,0.508
2015-11-11 02:42:00,2108E-3,5C000400,-0724,0830,12167,022.4,045.3,0.265,756.0,01.16,0.508
2015-11-11 02:43:00,1923E-3,5C000400,-0724,0830,12114,022.4,045.3,0.265,756.0,01.16,0.508
2015-11-11 02:44:00,2267E-3,5C000400,-0724,0830,12217,022.4,045.3,0.265,755.9,01.16,0.508
2015-11-11 02:45:00,2133E-3,5C000400,-0724,0830,12222,022.4,045.3,0.266,756.0,01.16,0.508
2015-11-11 02:46:00,2075E-3,5C000400,-0724,0830,12227,022.4,045.3,0.266,755.8,01.16,0.508
2015-11-11 02:47:00,2161E-3,5C000400,-0724,0831,12343,022.4,045.3,0.265,755.9,01.16,0.508
2015-11-11 02:48:00,2144E-3,5C000400,-0724,0829,12224,022.4,045.3,0.265,756.0,01.16,0.508
2015-11-11 02:49:00,2182E-3,5C000400,-0724,0830,12187,022.4,045.3,0.265,756.0,01.16,0.508
2015-11-11 02:50:00,2136E-3,5C000400,-0724,0829,12391,022.4,045.3,0.266,755.9,01.16,0.508
2015-11-11 02:51:00,2055E-3,5C000400,-0724,0830,12130,022.4,045.3,0.266,755.9,01.16,0.508
2015-11-11 02:52:00,2142E-3,5C000400,-0724,0830,12129,022.4,045.3,0.265,756.0,01.16,0.508
2015-11-11 02:53:00,2048E-3,5C000400,-0724,0830,12263,022.4,045.3,0.265,755.8,01.16,0.508
2015-11-11 02:54:00,2090E-3,5C000400,-0724,0830,12113,022.4,045.3,0.265,755.9,01.16,0.508
2015-11-11 02:55:00,2249E-3,5C000400,-0724,0830,12269,022.4,045.3,0.266,755.8,01.16,0.508
2015-11-11 02:56:00,1986E-3,5C000400,-0724,0830,12055,022.4,045.3,0.265,755.9,01.16,0.508
2015-11-11 02:57:00,2095E-3,5C000400,-0724,0830,12260,022.4,045.3,0.265,755.9,01.16,0.508
2015-11-11 02:58:00,2212E-3,5C000400,-0724,0830,12150,022.4,045.3,0.265,755.7,01.16,0.508
2015-11-11 02:59:00,2191E-3,5C000400,-0724,0830,12277,022.4,045.3,0.266,756.0,01.16,0.508
2015-11-11 03:00:00,2188E-3,5C000400,-0724,0830,12257,022.4,045.3,0.265,755.9,01.16,0.508
2015-11-11 03:01:00,2140E-3,5C000400,-0724,0830,12079,022.4,045.3,0.265,755.7,01.16,0.508
2015-11-11 03:02:00,2106E-3,5C000400,-0724,0830,12081,022.4,045.3,0.265,755.8,01.16,0.508
2015-11-11 03:03:00,2100E-3,5C000400,-0724,0830,12192,022.4,045.3,0.265,755.8,01.16,0.508
2015-11-11 03:04:00,2167E-3,5C000400,-0724,0830,12162,022.4,045.3,0.265,755.9,01.16,0.508
2015-11-11 03:05:00,2082E-3,5C000400,-0724,0831,12234,022.4,045.3,0.266,756.0,01.16,0.508
2015-11-11 03:06:00,2112E-3,5C000400,-0724,0830,12186,022.4,045.3,0.265,755.8,01.16,0.508
2015-11-11 03:07:00,2124E-3,5C000400,-0724,0830,12180,022.4,045.3,0.265,755.9,01.16,0.508
2015-11-11 03:08:00,2076E-3,5C000400,-0724,0829,12134,022.4,045.3,0.265,756.0,01.16,0.508
2015-11-11 03:09:00,2149E-3,5C000400,-0724,0830,11962,022.4,045.3,0.266,755.9,01.16,0.508
2015-11-11 03:10:00,2241E-3,5C000400,-0724,0830,12217,022.4,045.3,0.265,755.9,01.16,0.508
2015-11-11 03:11:00,2097E-3,5C000400,-0724,0830,12156,022.4,045.3,0.266,755.7,01.16,0.508
2015-11-11 03:12:00,2007E-3,5C000400,-0724,0830,12249,022.4,045.3,0.266,756.0,01.16,0.508
2015-11-11 03:13:00,2139E-3,5C000400,-0724,0829,12075,022.4,045.3,0.266,756.1,01.16,0.508
2015-11-11 03:14:00,2157E-3,5C000400,-0724,0830,12320,022.4,045.3,0.265,755.9,01.16,0.508
2015-11-11 03:15:00,2113E-3,5C000400,-0724,0829,12182,022.4,045.3,0.265,756.0,01.16,0.508
2015-11-11 03:16:00,2071E-3,5C000400,-0724,0830,12206,022.4,045.3,0.265,756.0,01.16,0.508
2015-11-11 03:17:00,2202E-3,5C000400,-0724,0830,12218,022.4,045.3,0.265,756.1,01.16,0.508
2015-11-11 03:18:00,2117E-3,5C000400,-0724,0829,12161,022.4,045.3,0.265,756.0,01.16,0.508
2015-11-11 03:19:00,2175E-3,5C000400,-0724,0830,12199,022.4,045.3,0.265,756.1,01.16,0.508
2015-11-11 03:20:00,2105E-3,5C000400,-0724,0830,12229,022.4,045.3,0.266,755.8,01.16,0.508
2015-11-11 03:21:00,2227E-3,5C000400,-0724,0831,12315,022.4,045.3,0.266,756.1,01.16,0.508
2015-11-11 03:22:00,2119E-3,5C000400,-0724,0831,12313,022.4,045.3,0.265,756.1,01.16,0.508
2015-11-11 03:23:00,2156E-3,5C000400,-0724,0830,12147,022.4,045.3,0.265,756.0,01.16,0.508
2015-11-11 03:24:00,2087E-3,5C000400,-0724,0830,12185,022.4,045.3,0.266,756.0,01.16,0.508
2015-11-11 03:25:00,1999E-3,5C000400,-0724,0830,12079,022.4,045.3,0.265,756.1,01.16,0.508
2015-11-11 03:26:00,2056E-3,5C000400,-0724,0830,12148,022.4,045.3,0.265,755.8,01.16,0.508
2015-11-11 03:27:00,2118E-3,5C000400,-0724,0831,12286,022.4,045.3,0.265,755.9,01.16,0.508
2015-11-11 03:28:00,2148E-3,5C000400,-0724,0830,12352,022.4,045.3,0.265,755.9,01.16,0.508
2015-11-11 03:29:00,2108E-3,5C000400,-0724,0830,12273,022.4,045.3,0.266,755.9,01.16,0.508
2015-11-11 03:30:00,2034E-3,5C000400,-0724,0829,12236,022.4,045.3,0.266,756.1,01.16,0.508
2015-11-11 03:31:00,2057E-3,5C000400,-0724,0829,12113,022.4,045.3,0.266,755.9,01.16,0.508
2015-11-11 03:32:00,2212E-3,5C000400,-0724,0831,12332,022.4,045.3,0.266,755.9,01.16,0.508
2015-11-11 03:33:00,2037E-3,5C000400,-0724,0830,12179,022.4,045.3,0.265,755.8,01.16,0.508
2015-11-11 03:34:00,2114E-3,5C000400,-0724,0830,12259,022.4,045.3,0.265,755.9,01.16,0.508
2015-11-11 03:35:00,2121E-3,5C000400,-0724,0829,12146,022.4,045.3,0.265,756.0,01.16,0.508
2015-11-11 03:36:00,1993E-3,5C000400,-0724,0830,12213,022.4,045.3,0.265,755.8,01.16,0.508
2015-11-11 03:37:00,2237E-3,5C000400,-0724,0830,12197,022.4,045.3,0.265,756.0,01.16,0.508
2015-11-11 03:38:00,2149E-3,5C000400,-0724,0829,12217,022.4,045.3,0.265,756.0,01.16,0.508
2015-11-11 03:39:00,2077E-3,5C000400,-0724,0830,12246,022.4,045.3,0.266,756.0,01.16,0.508
2015-11-11 03:40:00,2126E-3,5C000400,-0724,0830,12031,022.4,045.3,0.266,755.9,01.16,0.508
2015-11-11 03:41:00,1978E-3,5C000400,-0724,0830,12201,022.4,045.3,0.266,755.9,01.16,0.508
2015-11-11 03:42:00,1962E-3,5C000400,-0724,0830,12281,022.4,045.3,0.265,756.1,01.16,0.508
2015-11-11 03:43:00,2099E-3,5C000400,-0724,0830,12271,022.4,045.3,0.265,756.0,01.16,0.508
2015-11-11 03:44:00,2013E-3,5C000400,-0724,0830,12224,022.4,045.3,0.265,756.1,01.16,0.508
2015-11-11 03:45:00,2169E-3,5C000400,-0724,0830,12098,022.4,045.3,0.265,756.0,01.16,0.508
2015-11-11 03:46:00,2060E-3,5C000400,-0724,0830,12126,022.4,045.3,0.265,755.8,01.16,0.508
2015-11-11 03:47:00,1986E-3,5C000400,-0724,0830,12202,022.4,045.3,0.266,756.0,01.16,0.508
2015-11-11 03:48:00,2073E-3,5C000400,-0724,0829,12159,022.4,045.3,0.266,756.0,01.16,0.508
2015-11-11 03:49:00,2052E-3,5C000400,-0724,0829,12275,022.4,045.3,0.265,755.9,01.16,0.508
2015-11-11 03:50:00,2276E-3,5C000400,-0724,0830,12179,022.4,045.3,0.265,756.0,01.16,0.508
2015-11-11 03:51:00,2181E-3,5C000400,-0724,0830,12146,022.4,045.3,0.265,755.9,01.16,0.508
2015-11-11 03:52:00,1952E-3,5C000400,-0724,0831,12313,022.3,045.3,0.265,756.1,01.16,0.508
2015-11-11 03:53:00,2081E-3,5C000400,-0724,0830,12277,022.4,045.3,0.265,756.1,01.16,0.508
2015-11-11 03:54:00,2153E-3,5C000400,-0724,0830,12258,022.4,045.3,0.266,756.2,01.16,0.508
2015-11-11 03:55:00,2050E-3,5C000400,-0724,0830,12185,022.4,045.3,0.266,756.0,01.16,0.508
2015-11-11 03:56:00,2064E-3,5C000400,-0724,0830,12043,022.4,045.3,0.265,756.0,01.16,0.508
2015-11-11 03:57:00,2094E-3,5C000400,-0724,0830,12261,022.4,045.3,0.265,756.0,01.16,0.508
2015-11-11 03:58:00,2017E-3,5C000400,-0724,0829,12197,022.4,045.3,0.265,756.0,01.16,0.508
2015-11-11 03:59:00,2163E-3,5C000400,-0724,0830,12119,022.4,045.3,0.265,756.2,01.16,0.508
2015-11-11 04:00:00,2155E-3,5C000400,-0724,0829,12298,022.4,045.3,0.265,756.3,01.16,0.508
2015-11-11 04:01:00,2069E-3,5C000400,-0724,0829,12123,022.4,045.3,0.265,756.2,01.16,0.508
2015-11-11 04:02:00,2085E-3,5C000400,-0724,0830,12371,022.4,045.3,0.266,756.4,01.16,0.508
2015-11-11 04:03:00,2090E-3,5C000400,-0724,0830,12271,022.4,045.3,0.266,756.3,01.16,0.508
2015-11-11 04:04:00,2158E-3,5C000400,-0724,0829,12058,022.4,045.3,0.266,756.3,01.16,0.508
2015-11-11 04:05:00,2014E-3,5C000400,-0724,0829,12201,022.4,045.3,0.265,756.4,01.16,0.508
2015-11-11 04:06:00,2066E-3,5C000400,-0724,0829,12078,022.4,045.3,0.265,756.3,01.16,0.508
2015-11-11 04:07:00,1980E-3,5C000400,-0724,0830,12118,022.4,045.3,0.265,756.4,01.16,0.508
2015-11-11 04:08:00,1988E-3,5C000400,-0724,0830,12332,022.4,045.3,0.265,756.5,01.16,0.508
2015-11-11 04:09:00,2082E-3,5C000400,-0724,0829,12215,022.4,045.3,0.266,756.6,01.16,0.508
2015-11-11 04:10:00,2089E-3,5C000400,-0724,0829,12175,022.4,045.3,0.266,756.6,01.16,0.508
2015-11-11 04:11:00,2204E-3,5C000400,-0724,0829,12217,022.4,045.3,0.266,756.5,01.16,0.508
2015-11-11 04:12:00,2009E-3,5C000400,-0724,0829,12119,022.4,045.3,0.266,756.6,01.16,0.508
2015-11-11 04:13:00,2005E-3,5C000400,-0724,0830,12143,022.4,045.3,0.266,756.6,01.16,0.508
2015-11-11 04:14:00,1998E-3,5C000400,-0724,0830,12126,022.4,045.3,0.266,756.6,01.16,0.508
2015-11-11 04:15:00,2209E-3,5C000400,-0724,0830,12260,022.4,045.3,0.266,756.7,01.16,0.508
2015-11-11 04:16:00,2069E-3,5C000400,-0724,0829,12277,022.4,045.3,0.265,756.7,01.16,0.508
2015-11-11 04:17:00,1923E-3,5C000400,-0724,0830,12126,022.4,045.3,0.265,756.8,01.16,0.508
2015-11-11 04:18:00,2110E-3,5C000400,-0724,0830,12255,022.4,045.3,0.266,756.9,01.16,0.508
2015-11-11 04:19:00,1971E-3,5C000400,-0724,0830,12144,022.4,045.3,0.266,756.9,01.16,0.508
2015-11-11 04:20:00,2065E-3,5C000400,-0724,0830,12171,022.4,045.3,0.266,756.9,01.16,0.508